This is the latest recevied weather packets stored in our database for station/object F6BIJ-13. If no packets are shown the sender has not sent any weather packets the latest 10 day(s).
| Time | Temp. | Humidity | Pressure | Rain* | Wind** | Luminosity | Snow |
|---|---|---|---|---|---|---|---|
| 1777705237 | 17.22° C | 62% | 1024.4 hPa | 0 mm | - | - | - |
| 1777704877 | 17.22° C | 64% | 1024.5 hPa | 0 mm | - | - | - |
| 1777704517 | 17.78° C | 62% | 1024.5 hPa | 0 mm | - | - | - |
| 1777704157 | 17.22° C | 63% | 1024.4 hPa | 0 mm | - | - | - |
| 1777703797 | 16.67° C | 64% | 1024.4 hPa | 0 mm | - | - | - |
| 1777703437 | 16.67° C | 62% | 1024.4 hPa | 0 mm | - | - | - |
| 1777703077 | 16.67° C | 64% | 1024.5 hPa | 0 mm | - | - | - |
| 1777702717 | 16.11° C | 68% | 1024.4 hPa | 0 mm | - | - | - |
| 1777702357 | 14.44° C | 68% | 1024.4 hPa | 0 mm | - | - | - |
| 1777701997 | 13.89° C | 73% | 1024.5 hPa | 0 mm | - | - | - |
| 1777701637 | 13.89° C | 76% | 1024.5 hPa | 0 mm | - | - | - |
| 1777701277 | 12.78° C | 76% | 1024.5 hPa | 0 mm | - | - | - |
| 1777700917 | 12.78° C | 76% | 1024.5 hPa | 0 mm | - | - | - |
| 1777700557 | 12.22° C | 76% | 1024.5 hPa | 0 mm | - | - | - |
| 1777700197 | 12.22° C | 80% | 1024.4 hPa | 0 mm | - | - | - |
| 1777699837 | 11.67° C | 82% | 1024.3 hPa | 0 mm | - | - | - |
| 1777699477 | 11.11° C | 82% | 1024.2 hPa | 0 mm | - | - | - |
| 1777699117 | 10.56° C | 83% | 1024.3 hPa | 0 mm | - | - | - |
| 1777698757 | 10.56° C | 83% | 1024.3 hPa | 0 mm | - | - | - |
| 1777698397 | 10° C | 83% | 1024.2 hPa | 0 mm | - | - | - |
| 1777698037 | 10° C | 83% | 1024.2 hPa | 0 mm | - | - | - |
| 1777697677 | 10° C | 83% | 1024.2 hPa | 0 mm | - | - | - |
| 1777697317 | 10° C | 83% | 1024.2 hPa | 0 mm | - | - | - |
| 1777696958 | 10° C | 84% | 1024.2 hPa | 0 mm | - | - | - |
| 1777696597 | 10.56° C | 84% | 1024.2 hPa | 0 mm | - | - | - |
* Rain latest 24 hours (hover to see other rain measurements)
** Current wind speed in m/s (hover to see current wind gust speed)